Lancaster, TX

4:41 PM CDT on April 19, 2018 (GMT -0500)
Lancaster

Weather History for KLNC - December, 2012

Change the Weather History Date:

Wednesday, December 5, 2012

  Actual Average (KRBD) Record (KRBD)
Temperature  
Mean Temperature 52 °F -  
Max Temperature 62 °F 57 °F 79 °F (2014)
Min Temperature 41 °F 40 °F 28 °F (2005)
Degree Days  
Heating Degree Days 14    
Growing Degree Days 2 (Base 50)    
Moisture  
Dew Point 40 °F    
Average Humidity 65    
Maximum Humidity 100    
Minimum Humidity 38    
Precipitation  
Precipitation 0.00 in - - ()
Sea Level Pressure  
Sea Level Pressure 30.19 in    
Wind  
Wind Speed 5 mph (NNE)    
Max Wind Speed 8 mph    
Max Gust Speed -    
Visibility 10 miles    
Events      
Averages and records for this station are not official NWS values.
T = Trace of Precipitation, MM = Missing Value Source: NWS Daily Summary

Daily Weather History Graph

Daily Weather History Graph

Search for Another Location

Airport or City:

Astronomy

Dec. 05, 2012 Rise Set
Actual Time 7:14 AM CST 5:20 PM CST
Civil Twilight 6:47 AM CST 5:47 PM CST
Nautical Twilight 6:17 AM CST 6:18 PM CST
Astronomical Twilight 5:47 AM CST 6:48 PM CST
Moon 11:54 PM CST (12/5) 11:53 AM CST (12/5)
Length of Visible Light 11h 00m
Length of Day
10h 06m
Waning Gibbous, 59% of the Moon is Illuminated
Dec 5
Waning Gibbous
Dec 6
Last Quarter
Dec 13
New
Dec 19
First Quarter
Dec 28
Full

Hourly Weather History & Observations

Time (CST) Temp. Windchill Dew Point Humidity Pressure Visibility Wind Dir Wind Speed Gust Speed Precip Events Conditions
12:15 AM 53.6 °F - 28.4 °F 38% 30.26 in 10.0 mi North 8.1 mph - N/A   Clear
12:35 AM 51.8 °F - 28.4 °F 41% 30.25 in 10.0 mi NNE 6.9 mph - N/A   Clear
12:55 AM 50.0 °F - 30.2 °F 47% 30.26 in 10.0 mi North 6.9 mph - N/A   Clear
1:15 AM 46.4 °F 42.4 °F 30.2 °F 53% 30.25 in 10.0 mi North 8.1 mph - N/A   Clear
1:35 AM 46.4 °F 42.9 °F 30.2 °F 53% 30.25 in 10.0 mi North 6.9 mph - N/A   Clear
1:55 AM 46.4 °F 42.9 °F 30.2 °F 53% 30.25 in 10.0 mi North 6.9 mph - N/A   Clear
2:15 AM 44.6 °F 40.7 °F 30.2 °F 57% 30.25 in 10.0 mi North 6.9 mph - N/A   Clear
2:35 AM 44.6 °F 41.4 °F 30.2 °F 57% 30.25 in 10.0 mi North 5.8 mph - N/A   Clear
2:55 AM 46.4 °F 44.3 °F 30.2 °F 53% 30.25 in 10.0 mi North 4.6 mph - N/A   Clear
3:15 AM 42.8 °F 38.0 °F 30.2 °F 61% 30.26 in 10.0 mi North 8.1 mph - N/A   Clear
3:35 AM 44.6 °F 41.4 °F 30.2 °F 57% 30.26 in 10.0 mi NNW 5.8 mph - N/A   Clear
3:55 AM 44.6 °F 41.4 °F 30.2 °F 57% 30.26 in 10.0 mi NNW 5.8 mph - N/A   Clear
4:15 AM 44.6 °F 41.4 °F 32.0 °F 61% 30.26 in 10.0 mi NNW 5.8 mph - N/A   Clear
4:35 AM 44.6 °F 40.7 °F 32.0 °F 61% 30.27 in 10.0 mi NNW 6.9 mph - N/A   Clear
4:55 AM 42.8 °F 38.6 °F 30.2 °F 61% 30.26 in 10.0 mi North 6.9 mph - N/A   Clear
5:15 AM 42.8 °F 38.6 °F 32.0 °F 66% 30.26 in 10.0 mi North 6.9 mph - N/A   Clear
5:35 AM 42.8 °F 41.1 °F 32.0 °F 66% 30.26 in 10.0 mi NNW 3.5 mph - N/A   Clear
5:55 AM 42.8 °F 40.1 °F 32.0 °F 66% 30.26 in 10.0 mi NNW 4.6 mph - N/A   Clear
6:15 AM 41.0 °F 36.4 °F 32.0 °F 70% 30.27 in 10.0 mi NW 6.9 mph - N/A   Clear
6:35 AM 41.0 °F 39.0 °F 32.0 °F 70% 30.27 in 10.0 mi NNW 3.5 mph - N/A   Clear
6:55 AM 41.0 °F 38.0 °F 32.0 °F 70% 30.27 in 10.0 mi North 4.6 mph - N/A   Clear
8:55 AM 50.0 °F - 35.6 °F 58% 30.29 in 10.0 mi NNW 8.1 mph - N/A   Clear
9:15 AM 51.8 °F - 37.4 °F 58% 30.29 in 10.0 mi NNW 8.1 mph - N/A   Mostly Cloudy
9:35 AM 51.8 °F - 37.4 °F 58% 30.29 in 10.0 mi North 4.6 mph - N/A   Overcast
9:55 AM 53.6 °F - 39.2 °F 58% 30.29 in 10.0 mi North 6.9 mph - N/A   Overcast
10:15 AM 55.4 °F - 41.0 °F 58% 30.28 in 10.0 mi NNW 3.5 mph - N/A   Overcast
10:35 AM 55.4 °F - 41.0 °F 58% 30.27 in 10.0 mi North 6.9 mph - N/A   Overcast
10:55 AM 57.2 °F - 42.8 °F 59% 30.27 in 10.0 mi NNE 4.6 mph - N/A   Overcast
11:15 AM 57.2 °F - 44.6 °F 63% 30.26 in 10.0 mi North 4.6 mph - N/A   Overcast
11:35 AM 59.0 °F - 44.6 °F 59% 30.25 in 10.0 mi ENE 5.8 mph - N/A   Overcast
11:55 AM 59.0 °F - 46.4 °F 63% 30.25 in 10.0 mi North 5.8 mph - N/A   Mostly Cloudy
12:15 PM 60.8 °F - 46.4 °F 59% 30.23 in 10.0 mi ENE 3.5 mph - N/A   Clear
12:35 PM 60.8 °F - 46.4 °F 59% 30.22 in 10.0 mi NNW 3.5 mph - N/A   Clear
12:55 PM 60.8 °F - 46.4 °F 59% 30.20 in 10.0 mi ENE 5.8 mph - N/A   Clear
1:15 PM 60.8 °F - 46.4 °F 59% 30.18 in 10.0 mi NNE 5.8 mph - N/A   Clear
1:35 PM 62.6 °F - 46.4 °F 55% 30.17 in 10.0 mi Calm Calm - N/A   Clear
1:55 PM 62.6 °F - 46.4 °F 55% 30.17 in 10.0 mi NNE 5.8 mph - N/A   Clear
2:15 PM 62.6 °F - 46.4 °F 55% 30.15 in 10.0 mi NE 4.6 mph - N/A   Clear
2:35 PM 62.6 °F - 46.4 °F 55% 30.15 in 10.0 mi ENE 5.8 mph - N/A   Clear
2:55 PM 62.6 °F - 46.4 °F 55% 30.14 in 10.0 mi Calm Calm - N/A   Clear
3:15 PM 62.6 °F - 44.6 °F 52% 30.13 in 10.0 mi NE 3.5 mph - N/A   Clear
3:35 PM 62.6 °F - 46.4 °F 55% 30.13 in 10.0 mi NNE 4.6 mph - N/A   Clear
3:55 PM 62.6 °F - 44.6 °F 52% 30.13 in 10.0 mi North 3.5 mph - N/A   Clear
4:15 PM 62.6 °F - 44.6 °F 52% 30.13 in 10.0 mi NE 3.5 mph - N/A   Clear
4:35 PM 62.6 °F - 46.4 °F 55% 30.12 in 10.0 mi NE 3.5 mph - N/A   Clear
4:55 PM 60.8 °F - 46.4 °F 59% 30.12 in 10.0 mi NE 5.8 mph - N/A   Clear
5:15 PM 60.8 °F - 46.4 °F 59% 30.12 in 10.0 mi NE 4.6 mph - N/A   Clear
5:35 PM 59.0 °F - 46.4 °F 63% 30.12 in 10.0 mi ENE 4.6 mph - N/A   Clear
5:55 PM 59.0 °F - 46.4 °F 63% 30.11 in 10.0 mi East 6.9 mph - N/A   Clear
6:15 PM 57.2 °F - 46.4 °F 67% 30.11 in 10.0 mi East 5.8 mph - N/A   Clear
6:35 PM 55.4 °F - 46.4 °F 72% 30.11 in 10.0 mi East 5.8 mph - N/A   Clear
6:55 PM 55.4 °F - 46.4 °F 72% 30.10 in 10.0 mi East 5.8 mph - N/A   Clear
7:15 PM 55.4 °F - 46.4 °F 72% 30.10 in 10.0 mi Calm Calm - N/A   Clear
7:35 PM 53.6 °F - 46.4 °F 77% 30.11 in 10.0 mi Calm Calm - N/A   Clear
7:55 PM 53.6 °F - 46.4 °F 77% 30.11 in 10.0 mi Calm Calm - N/A   Clear
8:15 PM 51.8 °F - 46.4 °F 82% 30.11 in 10.0 mi Calm Calm - N/A   Clear
8:35 PM 53.6 °F - 46.4 °F 77% 30.10 in 10.0 mi Calm Calm - N/A   Clear
8:55 PM 51.8 °F - 44.6 °F 76% 30.10 in 10.0 mi Calm Calm - N/A   Clear
9:15 PM 50.0 °F - 46.4 °F 87% 30.10 in 10.0 mi Calm Calm - N/A   Clear
9:35 PM 50.0 °F - 46.4 °F 87% 30.10 in 10.0 mi Calm Calm - N/A   Clear
9:55 PM 50.0 °F - 46.4 °F 87% 30.10 in 10.0 mi Calm Calm - N/A   Clear
10:15 PM 48.2 °F - 44.6 °F 87% 30.09 in 10.0 mi Calm Calm - N/A   Clear
10:35 PM 46.4 °F - 44.6 °F 93% 30.09 in 10.0 mi Calm Calm - N/A   Clear
10:55 PM 44.6 °F - 44.6 °F 100% 30.09 in 10.0 mi Calm Calm - N/A   Clear
11:15 PM 44.6 °F - 44.6 °F 100% 30.07 in 10.0 mi Calm Calm - N/A   Clear
11:35 PM 44.6 °F - 42.8 °F 93% 30.07 in 10.0 mi Calm Calm - N/A   Clear
11:55 PM 44.6 °F - 42.8 °F 93% 30.06 in 10.0 mi Calm Calm - N/A   Clear